Weather History for KFNT - September, 2013

Change the Weather History Date:

Friday, September 13, 2013

  Actual Average Record
Temperature  
Mean Temperature 49 °F 62 °F  
Max Temperature 60 °F 74 °F 93 °F (1952)
Min Temperature 37 °F 51 °F 33 °F (1964)
Degree Days  
Heating Degree Days 16 4  
Month to date heating degree days 29 39  
Since 1 July heating degree days 51 83  
Cooling Degree Days 0 2  
Month to date cooling degree days 58 31  
Year to date cooling degree days 728 508  
Growing Degree Days 3 (Base 50)    
Moisture  
Dew Point 41 °F    
Average Humidity 58    
Maximum Humidity 76    
Minimum Humidity 40    
Precipitation  
Precipitation 0.00 in 0.13 in 2.04 in (2008)
Month to date precipitation 0.30 1.58  
Year to date precipitation 25.89 22.14  
Snow  
Snow 0.00 in 0.00 in 0.00 in ()
Month to date snowfall 0.0 0.0  
Since 1 July snowfall 0.0 0.0  
Since 1 September snowfall 0.0 0.0  
Snow Depth 0.00 in    
Sea Level Pressure  
Sea Level Pressure 30.09 in    
Wind  
Wind Speed 10 mph (North)    
Max Wind Speed 21 mph    
Max Gust Speed 24 mph    
Visibility 10 miles    
Events      
T = Trace of Precipitation, MM = Missing Value Source: NWS Daily Summary

Daily Weather History Graph

Daily Weather History Graph

Search for Another Location

Airport or City:

Trip Planner

Search our weather history database for the weather conditions in past years. The results will help you decide how hot, cold, wet, or windy it might be!

Date:

Astronomy

Sep. 13, 2013 Rise Set
Actual Time 7:12 AM EDT 7:48 PM EDT
Civil Twilight 6:44 AM EDT 8:16 PM EDT
Nautical Twilight 6:10 AM EDT 8:50 PM EDT
Astronomical Twilight 5:35 AM EDT 9:25 PM EDT
Moon 3:43 PM EDT (9/13) 12:34 AM EDT (9/13)
Length of Visible Light 13h 32m
Length of Day
12h 35m
First Quarter, 61% of the Moon is Illuminated
Sep 13
First Quarter
Sep 19
Full
Sep 26
Last Quarter
Oct 4
New
Oct 11
First Quarter

Hourly Weather History & Observations

Time (EDT) Temp. Windchill Dew Point Humidity Pressure Visibility Wind Dir Wind Speed Gust Speed Precip Events Conditions
12:53 AM 57.9 °F - 42.1 °F 56% 29.98 in 10.0 mi NNW 12.7 mph - N/A   Overcast
1:53 AM 57.0 °F - 42.1 °F 57% 29.99 in 10.0 mi NNW 13.8 mph - N/A   Overcast
2:53 AM 55.9 °F - 41.0 °F 57% 30.00 in 10.0 mi NNW 19.6 mph 24.2 mph N/A   Overcast
3:39 AM 55.4 °F - 42.8 °F 63% 30.01 in 10.0 mi NNW 10.4 mph - N/A   Overcast
3:53 AM 55.0 °F - 42.1 °F 62% 30.01 in 10.0 mi NNW 11.5 mph 18.4 mph N/A   Overcast
4:53 AM 54.0 °F - 44.1 °F 69% 30.02 in 10.0 mi NNW 10.4 mph - N/A   Overcast
5:53 AM 53.1 °F - 44.1 °F 71% 30.03 in 10.0 mi NNW 11.5 mph - N/A   Overcast
6:53 AM 53.1 °F - 44.1 °F 71% 30.04 in 10.0 mi North 10.4 mph - N/A   Overcast
7:53 AM 53.1 °F - 44.1 °F 71% 30.05 in 10.0 mi North 12.7 mph - N/A   Overcast
8:53 AM 53.1 °F - 44.1 °F 71% 30.07 in 10.0 mi NNW 13.8 mph 19.6 mph N/A   Overcast
9:01 AM 53.6 °F - 44.6 °F 72% 30.07 in 10.0 mi North 15.0 mph 19.6 mph N/A   Overcast
9:53 AM 53.1 °F - 44.1 °F 71% 30.09 in 10.0 mi NNW 13.8 mph - N/A   Overcast
10:53 AM 54.0 °F - 44.1 °F 69% 30.11 in 10.0 mi North 13.8 mph 20.7 mph N/A   Overcast
11:50 AM 55.4 °F - 42.8 °F 63% 30.11 in 10.0 mi North 15.0 mph 20.7 mph N/A   Overcast
11:53 AM 57.9 °F - 44.1 °F 60% 30.12 in 10.0 mi North 10.4 mph 20.7 mph N/A   Overcast
12:53 PM 57.0 °F - 43.0 °F 59% 30.12 in 10.0 mi North 11.5 mph - N/A   Overcast
1:53 PM 55.9 °F - 41.0 °F 57% 30.13 in 10.0 mi North 13.8 mph - N/A   Overcast
2:53 PM 57.0 °F - 42.1 °F 57% 30.12 in 10.0 mi NNE 15.0 mph - N/A   Overcast
3:53 PM 57.0 °F - 41.0 °F 55% 30.12 in 10.0 mi North 9.2 mph - N/A   Overcast
4:53 PM 60.1 °F - 37.0 °F 42% 30.12 in 10.0 mi North 13.8 mph - N/A   Partly Cloudy
5:53 PM 59.0 °F - 36.0 °F 42% 30.12 in 10.0 mi NNW 8.1 mph - N/A   Clear
6:53 PM 57.0 °F - 36.0 °F 45% 30.12 in 10.0 mi NNE 10.4 mph - N/A   Clear
7:53 PM 53.1 °F - 37.9 °F 57% 30.13 in 10.0 mi NNE 6.9 mph - N/A   Clear
8:53 PM 52.0 °F - 37.9 °F 59% 30.15 in 10.0 mi North 3.5 mph - N/A   Clear
9:53 PM 46.9 °F - 39.0 °F 74% 30.17 in 10.0 mi ENE 4.6 mph - N/A   Clear
10:53 PM 46.0 °F 44.8 °F 37.9 °F 73% 30.17 in 10.0 mi East 3.5 mph - N/A   Clear
11:53 PM 46.0 °F - 39.0 °F 76% 30.17 in 10.0 mi Calm Calm - N/A   Clear